Lydd, United Kingdom

1:01 PM BST on June 22, 2017 (GMT +0100)
Lydd

Weather History for EGMD - October, 2012

Change the Weather History Date:

Friday, October 5, 2012

  Actual Average Record
Temperature  
Mean Temperature 58 °F -  
Max Temperature 60 °F - - ()
Min Temperature 53 °F - - ()
Degree Days  
Heating Degree Days 8    
Growing Degree Days 8 (Base 50)    
Moisture  
Dew Point 53 °F    
Average Humidity 82    
Maximum Humidity 100    
Minimum Humidity 68    
Precipitation  
Precipitation 0.00 in - - ()
Sea Level Pressure  
Sea Level Pressure 29.79 in    
Wind  
Wind Speed 14 mph ()    
Max Wind Speed 23 mph    
Max Gust Speed -    
Visibility 5.8 miles    
Events Rain    
T = Trace of Precipitation, MM = Missing Value Source: Averaged Metar Reports

Daily Weather History Graph

Daily Weather History Graph

Search for Another Location

Airport or City:

Trip Planner

Search our weather history database for the weather conditions in past years. The results will help you decide how hot, cold, wet, or windy it might be!

Date:

Astronomy

Oct. 05, 2012 Rise Set
Actual Time 7:03 AM BST 6:24 PM BST
Civil Twilight 6:30 AM BST 6:57 PM BST
Nautical Twilight 5:52 AM BST 7:35 PM BST
Astronomical Twilight 5:13 AM BST 8:14 PM BST
Moon 9:04 PM BST (10/5) 12:30 PM BST (10/5)
Length of Visible Light 12h 26m
Length of Day
11h 21m
Waning Gibbous, 76% of the Moon is Illuminated
Oct 5
Waning Gibbous
Oct 8
Last Quarter
Oct 15
New
Oct 22
First Quarter
Oct 29
Full

Hourly Weather History & Observations

Time (BST) Temp. Dew Point Humidity Pressure Visibility Wind Dir Wind Speed Gust Speed Precip Events Conditions
8:20 AM 57.2 °F 55.4 °F 94% 29.68 in 6.2 mi West 23.0 mph - N/A Rain Light Rain
8:50 AM 57.2 °F 55.4 °F 94% 29.68 in 6.2 mi West 17.3 mph - N/A   Mostly Cloudy
9:20 AM 57.2 °F 53.6 °F 88% 29.71 in 6.2 mi WSW 9.2 mph - N/A   Scattered Clouds
9:50 AM 57.2 °F 53.6 °F 88% 29.74 in 6.2 mi WSW 11.5 mph - N/A   Scattered Clouds
10:20 AM 57.2 °F 53.6 °F 88% 29.74 in 6.2 mi WSW 15.0 mph - N/A Rain Light Rain
10:50 AM 57.2 °F 51.8 °F 82% 29.74 in 6.2 mi SW 16.1 mph - N/A   Mostly Cloudy
11:20 AM 57.2 °F 51.8 °F 82% 29.77 in 6.2 mi WSW 18.4 mph - N/A   Mostly Cloudy
11:50 AM 59.0 °F 51.8 °F 77% 29.77 in 6.2 mi WSW 18.4 mph - N/A   Mostly Cloudy
12:20 PM 59.0 °F 51.8 °F 77% 29.80 in 6.2 mi WSW 18.4 mph - N/A   Mostly Cloudy
12:50 PM 60.8 °F 51.8 °F 72% 29.80 in 6.2 mi WSW 18.4 mph - N/A   Partly Cloudy
1:20 PM 59.0 °F 51.8 °F 77% 29.80 in 6.2 mi WSW 18.4 mph - N/A   Partly Cloudy
1:50 PM 60.8 °F 50.0 °F 68% 29.83 in 6.2 mi WSW 17.3 mph - N/A   Partly Cloudy
2:20 PM 60.8 °F 50.0 °F 68% 29.83 in 6.2 mi West 21.9 mph - N/A   Partly Cloudy
2:50 PM 60.8 °F 50.0 °F 68% 29.83 in 6.2 mi SW 15.0 mph - N/A   Partly Cloudy
3:20 PM 59.0 °F 51.8 °F 77% 29.83 in 6.2 mi WSW 18.4 mph - N/A   Partly Cloudy
3:50 PM 59.0 °F 51.8 °F 77% 29.83 in 6.2 mi WSW 17.3 mph - N/A   Scattered Clouds
4:20 PM 59.0 °F 51.8 °F 77% 29.83 in 6.2 mi WSW 13.8 mph - N/A   Scattered Clouds
4:50 PM 59.0 °F 53.6 °F 82% 29.83 in 6.2 mi SW 13.8 mph - N/A   Scattered Clouds
5:20 PM 57.2 °F 53.6 °F 88% 29.83 in 6.2 mi WSW 15.0 mph - N/A Rain Light Rain
5:50 PM 55.4 °F 53.6 °F 94% 29.86 in 3.7 mi WSW 16.1 mph - N/A Rain Light Rain
6:20 PM 55.4 °F 53.6 °F 94% 29.86 in 2.5 mi WNW 10.4 mph - N/A Rain Light Rain
6:50 PM 53.6 °F 53.6 °F 100% 29.86 in 3.1 mi WSW 2.3 mph - N/A Rain Light Rain